Location: Drocourt
(49.0571°N, 1.7669°E)
Time: 18:44:57
(UTC+00:00)

DMSP B5D2-2 - Pass Details

Date: 09 February 2023
Orbit: 788 x 805 km, 98.3° (Epoch: 26 March)

Event Time Altitude Azimuth Distance (km) Brightness Sun altitude
Rises 18:01:21 0° 12° (NNE) 3,331 7.1 -10.0°
Reaches altitude 10° 18:03:42 10° 12° (NNE) 2,394 6.3 -10.4°
Maximum altitude 18:09:00 77° 287° (WNW) 828 4.3 -11.3°
Drops below altitude 10° 18:14:13 10° 202° (SSW) 2,366 7.0 -12.1°
Sets 18:16:32 0° 201° (SSW) 3,289 7.7 -12.5°
